sat.trackr.live / text

‹ back to catalog

SJ-12

NORAD 36596 · 2010-027A

PAYLOAD ACTIVE UNKNOWN

§ Identity

Operator
Country
PRC
Launch date
2010-06-15
Launch site
JSC
Launch vehicle
Mass (kg)
RCS (m²)
3.26

External: N2YO · Heavens-Above · Gunter

§ Orbital elements

Epoch: 2026-09-20T05:38:41.826912Z

Period
94.90 min
Inclination
97.7611°
Eccentricity
0.0007854
Mean motion
15.17447309 rev/d
Perigee alt
508.1 km
Apogee alt
519.0 km
Semi-major
6,891.7 km
B*
1.4203e-4
RAAN
283.2259°
Arg perigee
121.8141°
Mean anomaly
238.3857°
Rev number
88,927

§ Raw data

SJ-121 36596U 10027A   26263.23520633  .00002772  00000+0  14203-3 0  99922 36596  97.7611 283.2259 0007854 121.8141 238.3857 15.17447309889276

JSON: /api/v1/satellites/36596 · /tle

For live sub-satellite position, see the globe view (requires WebGL).

§ Visibility from observer

Set your observer location to see the next 7 days of passes ≥ 10°. The values pass through the URL so the page stays shareable.

No JS? Fill the form by hand. The geolocation button needs JavaScript.